GW1815 Weather Reports


Display with metric or nautical units.
time (UTC)temp
F
wind
direction
speed
MPH
gust
MPH
rain 1hr
in
rain 24hr
in
rain mn
in
humidity
%
barometer
mb
20260504004534 64 0 0.0 3.0 0.00 0.00 0.00 49 1004.2
20260504003030 65 209 1.0 6.0 0.00 0.00 0.00 48 1004.2
20260504001529 66 0 0.0 7.0 0.00 0.00 0.00 46 1004.2
20260504000032 67 213 2.0 11.0 0.00 0.00 0.00 45 1004.2
20260503234530 68 189 4.0 11.0 0.00 0.00 0.00 42 1004.3
20260503233029 69 227 5.0 15.0 0.00 0.00 0.00 41 1004.3
20260503231529 69 183 6.0 17.0 0.00 0.00 0.00 43 1004.3
20260503230030 69 186 9.0 18.0 0.00 0.00 0.00 41 1004.4
20260503224530 69 219 5.0 19.0 0.00 0.00 0.00 42 1004.5
20260503223030 68 178 9.0 23.0 0.00 0.00 0.00 42 1004.7
20260503221535 68 208 10.0 27.0 0.00 0.00 0.00 43 1004.7
20260503220035 68 121 4.0 21.0 0.00 0.00 0.00 45 1004.8
20260503214540 67 225 11.0 28.0 0.00 0.00 0.00 42 1004.8
20260503213032 68 225 9.0 30.0 0.00 0.00 0.00 42 1005.1
20260503211548 68 208 8.0 27.0 0.00 0.00 0.00 44 1005.3
20260503210035 67 281 9.0 27.0 0.00 0.00 0.00 43 1005.5
20260503204537 67 182 8.0 29.0 0.00 0.00 0.00 44 1005.7
20260503203043 66 198 12.0 28.0 0.00 0.00 0.00 46 1006.2
20260503201535 66 190 15.0 39.0 0.00 0.00 0.00 46 1006.5
20260503200046 66 187 11.0 33.0 0.00 0.00 0.00 46 1006.9
20260503194530 66 203 13.0 29.0 0.00 0.00 0.00 46 1007.1
20260503193034 64 194 10.0 27.0 0.00 0.00 0.00 46 1007.2
20260503191537 62 221 12.0 25.0 0.00 0.00 0.00 50 1007.3
20260503190030 61 182 8.0 23.0 0.00 0.00 0.00 52 1007.4
20260503184541 61 188 14.0 28.0 0.00 0.00 0.00 51 1007.5
20260503183032 62 192 11.0 33.0 0.00 0.00 0.00 51 1007.7
20260503181538 61 194 13.0 30.0 0.00 0.00 0.00 51 1008.0
20260503180047 61 159 11.0 29.0 0.00 0.00 0.00 57 1008.6
20260503174543 59 167 12.0 30.0 0.00 0.00 0.00 58 1009.0
20260503173041 55 173 13.0 29.0 0.00 0.00 0.00 62 1009.3
20260503171534 55 166 13.0 27.0 0.00 0.00 0.00 62 1009.9
20260503081539 43 0 1.0 9.0 0.00 0.00 0.00 65 1012.7
20260503071536 40 0 1.0 5.0 0.00 0.00 0.00 70 1013.1
20260503054531 37 192 2.0 7.0 0.00 0.00 0.00 79 1013.8
20260503053032 37 0 1.0 7.0 0.00 0.00 0.00 80 1013.9
20260503051537 37 198 0.0 4.0 0.00 0.00 0.00 81 1014.0
20260503050033 37 0 0.0 3.0 0.00 0.00 0.00 81 1014.2
20260503044533 37 194 0.0 5.0 0.00 0.00 0.00 81 1014.1
20260503043032 37 152 0.0 2.0 0.00 0.00 0.00 82 1014.2
20260503041534 37 207 1.0 5.0 0.00 0.00 0.00 83 1014.2
20260503040030 37 167 1.0 5.0 0.00 0.00 0.00 84 1014.4
20260503034533 37 200 1.0 5.0 0.00 0.00 0.00 85 1014.5
20260503033037 37 178 1.0 7.0 0.00 0.00 0.00 84 1014.6
20260503031535 38 175 0.0 4.0 0.00 0.00 0.00 83 1014.7
20260503030048 38 0 0.0 2.0 0.00 0.00 0.00 82 1014.8
20260503024535 39 0 0.0 0.0 0.00 0.00 0.00 81 1014.9
20260503023033 39 0 0.0 0.0 0.00 0.00 0.00 80 1014.8
20260503021534 40 0 0.0 0.0 0.00 0.00 0.00 79 1014.8
20260503020032 41 0 0.0 1.0 0.00 0.00 0.00 78 1014.7
20260503014533 42 0 0.0 2.0 0.00 0.00 0.00 77 1014.7
20260503013030 43 0 0.0 0.0 0.00 0.00 0.00 76 1014.5
20260503011530 44 0 0.0 6.0 0.00 0.00 0.00 74 1014.6
20260503010032 44 148 0.0 7.0 0.00 0.00 0.00 73 1014.6